www.pogodaiklimat.ru

Погода и климат >> Архив погоды >> Германия >> Киль маяк


ПОГОДА в Киль маяке

  • Прогноз погоды в Киль маяке
  • Монитор погоды в Киль маяке

АРХИВ ПОГОДЫ в Киль маяке

Время (UTC), дата Ветер
(напр.,м/с)
 
Видим.   Явления Облачность Т
(С)
Тd
(С)
f
(%)
Тe
(С)
Тes
(С)
Комфортность P
(гПа)
Po
(гПа)
Тmin
(С)
Tmax
(С)
R
(мм)
R24
(мм)
S
(см)
07 18.05 В 9-10
{11}
н/о н/о +10.0 +10.0 100 +5 +5 1010.1 1007.0
08 18.05 В 9-11
{11}
н/о н/о +10.1 +10.1 100 +6 +6 1010.1 1007.0
09 18.05 В 8-9
{11}
н/о н/о +10.1 +10.1 100 +6 +6 1010.2 1007.1
10 18.05 В 10-12
{12}
н/о н/о +10.4 +10.4 100 +6 +6 1009.9 1006.8
11 18.05 В 8-9
{11}
н/о н/о +10.4 +10.4 100 +6 +6 1009.7 1006.6
12 18.05 В 7-8
{12}
н/о н/о +10.3 +10.3 100 +6 +6 1009.4 1006.3
13 18.05 В 6-8
{8}
н/о н/о +11.4 +11.4 100 +8 +8 1009.4 1006.3
14 18.05 В 12-14
{14}
н/о н/о +13.5 +11.4 87 +10 +10 1008.8 1005.7
15 18.05 В 10-12
{14}
н/о н/о +13.8 +11.3 85 +11 +11 1008.8 1005.7
16 18.05 В 13-15
{15}
н/о н/о +13.9 +10.9 82 +11 +11 1008.2 1005.1
17 18.05 В 12-13
{14}
н/о н/о +13.8 +10.9 83 +11 +11 1008.2 1005.1
18 18.05 В 15-17
{17}
н/о н/о +13.7 +10.9 83 +10 +10 1008.2 1005.1 +9.8 +14.1
19 18.05 В 10-11
{17}
н/о н/о +12.7 +11.5 92 +9 +9 1008.8 1005.7
20 18.05 В 9-10
{10}
н/о н/о +12.6 +11.5 93 +9 +9 1008.9 1005.8
21 18.05 В 8-9
{17}
н/о н/о +11.5 +11.2 98 +8 +8 1008.8 1005.7
22 18.05 В 10-11
{11}
н/о н/о +10.8 +10.8 100 +6 +6 1008.9 1005.8
23 18.05 В 10-11
{11}
н/о н/о +10.8 +10.8 100 +6 +6 1008.8 1005.7
00 19.05 В 10-11
{17}
н/о н/о +10.7 +10.7 100 +6 +6 1008.6 1005.5
01 19.05 В 10-11
{11}
н/о н/о +10.6 +10.6 100 +6 +6 1008.5 1005.4
02 19.05 В 9-10
{11}
н/о н/о +10.4 +10.4 100 +6 +6 1008.2 1005.1
03 19.05 В 10-11
{11}
н/о н/о +10.5 +10.5 100 +6 +6 1008.2 1005.1
04 19.05 В 10-12
{12}
н/о н/о +10.4 +10.4 100 +6 +6 1008.3 1005.2
05 19.05 В 10-11
{11}
н/о н/о +10.2 +10.2 100 +6 +6 1008.7 1005.6
06 19.05 В 9-10
{12}
н/о н/о +10.2 +10.2 100 +6 +6 1008.5 1005.4 +10.1 +13.6
07 19.05 В 9-10
{11}
н/о н/о +10.3 +10.3 100 +6 +6 1008.7 1005.6
08 19.05 В 8-10
{11}
н/о н/о +10.1 +10.1 100 +6 +6 1009.0 1005.9
09 19.05 В 8-10
{12}
н/о н/о +10.5 +10.5 100 +6 +6 1009.0 1005.9
10 19.05 В 6-7
{9}
н/о н/о +10.7 +10.7 100 +7 +7 1008.8 1005.7
11 19.05 В 6-7
{8}
н/о н/о +11.0 +11.0 100 +8 +8 1008.9 1005.8
12 19.05 В 6-6
{12}
н/о н/о +10.8 +10.8 100 +7 +7 1008.9 1005.8
13 19.05 В 6-8
{8}
н/о н/о +11.7 +11.7 100 +9 +9 1008.6 1005.5
14 19.05 СВ 5-6
{8}
н/о н/о +12.2 +11.3 94 +10 +10 1008.4 1005.3
15 19.05 СВ 3-4
{8}
н/о н/о +11.1 +10.9 99 +9 +9 1008.3 1005.2
16 19.05 СВ 6-6
{6}
н/о н/о +11.9 +11.8 99 +9 +9 1007.6 1004.5
17 19.05 В 4-5
{6}
н/о н/о +12.8 +12.3 97 +11 +11 1007.7 1004.6
18 19.05 В 7-7
{8}
н/о н/о +12.9 +12.3 96 +10 +10 1007.6 1004.5 +9.9 +13.1
19 19.05 В 7-7
{9}
н/о н/о +12.8 +12.0 95 +10 +10 1007.7 1004.6
20 19.05 В 7-7
{8}
н/о н/о +12.7 +12.2 97 +10 +10 1007.8 1004.7
21 19.05 В 7-7
{9}
н/о н/о +13.0 +12.5 97 +10 +10 1007.9 1004.8
22 19.05 В 10-10
{10}
н/о н/о +12.9 +12.5 97 +9 +9 1007.7 1004.6
23 19.05 В 8-10
{10}
н/о н/о +12.2 +12.2 100 +9 +9 1007.7 1004.6
00 20.05 В 6-7
{10}
н/о н/о +12.1 +12.1 100 +9 +9 1007.3 1004.2
01 20.05 В 7-8
{8}
н/о н/о +12.0 +12.0 100 +9 +9 1006.9 1003.8
02 20.05 В 6-7
{9}
н/о н/о +12.1 +12.1 100 +9 +9 1006.7 1003.6
03 20.05 В 7-9
{9}
н/о н/о +12.7 +12.7 100 +10 +10 1006.8 1003.7
04 20.05 В 8-8
{10}
н/о н/о +12.2 +12.2 100 +9 +9 1006.7 1003.6
05 20.05 В 5-6
{9}
н/о н/о +12.2 +12.2 100 +10 +10 1006.7 1003.6
06 20.05 СВ 5-5
{10}
н/о н/о +12.3 +12.3 100 +10 +10 1006.7 1003.6 +11.8 +13.4
07 20.05 В 3-4
{6}
н/о н/о +12.3 +12.3 100 +11 +11 1006.9 1003.8
08 20.05 СВ 4-5
{5}
н/о н/о +12.5 +12.5 100 +10 +10 1007.2 1004.1
09 20.05 СВ 6-7
{7}
н/о н/о +12.8 +12.8 100 +10 +10 1007.4 1004.3
10 20.05 В 4-5
{8}
н/о н/о +12.8 +12.8 100 +11 +11 1007.5 1004.4
11 20.05 В 2-2
{4}
н/о н/о +13.2 +13.2 100 +12 +12 1007.5 1004.4
12 20.05 С 1-1
{8}
н/о н/о +16.8 +14.5 86 +18 +18 1007.6 1004.5
13 20.05 С 1-2
{3}
н/о н/о +18.5 +13.4 72 +20 +20 1007.4 1004.4
14 20.05 СЗ 4-5
{5}
н/о н/о +16.2 +13.5 84 +15 +15 1007.1 1004.0
15 20.05 С 5-6
{6}
н/о н/о +16.0 +13.6 86 +15 +15 1006.2 1003.1
16 20.05 С 6-6
{6}
н/о н/о +16.0 +13.6 86 +15 +15 1006.3 1003.2
17 20.05 С 6-6
{7}
н/о н/о +16.7 +13.3 80 +16 +16 1006.2 1003.1
18 20.05 С 9-9
{9}
н/о н/о +17.2 +13.0 76 +16 +16 1005.9 1002.8 +12.3 +18.7
19 20.05 С 7-8
{10}
н/о н/о +17.3 +13.2 77 +16 +16 1006.6 1003.5
20 20.05 С 9-10
{10}
н/о н/о +17.2 +11.6 70 +16 +16 1006.2 1003.1
21 20.05 С 11-11
{11}
н/о н/о +17.5 +11.7 69 +16 +16 1005.9 1002.8
22 20.05 С 10-11
{12}
н/о н/о +16.5 +12.1 75 +15 +15 1006.2 1003.1
23 20.05 С 10-11
{11}
н/о н/о +16.0 +12.4 79 +14 +14 1005.9 1002.8
00 21.05 С 11-12
{12}
н/о н/о +15.2 +12.5 84 +13 +13 1005.4 1002.3
01 21.05 С 9-10
{11}
н/о н/о +14.1 +12.9 92 +11 +11 1005.4 1002.3
02 21.05 С 7-8
{10}
н/о н/о +13.5 +12.9 96 +11 +11 1005.9 1002.8
03 21.05 С 8-8
{11}
н/о н/о +13.2 +12.9 98 +10 +10 1005.9 1002.8
04 21.05 С 8-8
{9}
н/о н/о +13.2 +12.8 97 +10 +10 1006.0 1002.9
05 21.05 С 9-10
{10}
н/о н/о +13.3 +12.6 96 +10 +10 1005.9 1002.8
06 21.05 С 9-10
{11}
н/о н/о +13.4 +12.7 96 +10 +10 1005.8 1002.7 +13.1 +18.3
07 21.05 С 8-8
{10}
н/о н/о +13.5 +12.8 96 +11 +11 1006.1 1003.0
08 21.05 СЗ 8-8
{8}
н/о н/о +13.9 +12.8 93 +11 +11 1006.5 1003.4
09 21.05 С 7-8
{10}
н/о н/о +14.5 +12.9 90 +12 +12 1006.4 1003.3
10 21.05 С 6-7
{8}
н/о н/о +14.3 +12.9 91 +12 +12 1006.8 1003.7
11 21.05 С 7-7
{8}
н/о н/о +14.6 +13.7 94 +12 +12 1007.0 1003.9
12 21.05 С 6-7
{10}
н/о н/о +15.0 +13.6 91 +13 +13 1007.1 1004.0
13 21.05 СЗ 5-7
{7}
н/о н/о +15.9 +13.9 88 +15 +15 1007.0 1003.9
14 21.05 СЗ 5-5
{7}
н/о н/о +17.1 +14.4 84 +16 +16 1007.3 1004.2
15 21.05 С 2-2
{7}
н/о н/о +17.5 +14.8 84 +18 +18 1007.4 1004.3
16 21.05 ЮЗ 1-2
{3}
н/о н/о +16.1 +14.3 89 +17 +17 1007.5 1004.4
17 21.05 ЮЗ 3-4
{4}
н/о н/о +16.4 +14.6 89 +16 +16 1007.5 1004.4
18 21.05 З 5-6
{7}
н/о н/о +17.0 +15.9 93 +16 +16 1007.4 1004.3 +13.3 +17.5
19 21.05 З 10-10
{11}
н/о н/о +14.5 +14.0 97 +12 +12 1007.9 1004.8
20 21.05 З 9-10
{11}
н/о н/о +13.6 +13.4 99 +11 +11 1008.6 1005.5
21 21.05 З 10-11
{11}
н/о н/о +13.3 +12.7 96 +10 +10 1008.9 1005.8
22 21.05 З 10-11
{12}
н/о н/о +12.8 +12.2 96 +9 +9 1008.8 1005.7
23 21.05 З 10-12
{12}
н/о н/о +12.4 +11.9 97 +9 +9 1009.1 1006.0
00 22.05 З 10-12
{12}
н/о н/о +12.2 +11.5 95 +8 +8 1009.1 1006.0
01 22.05 З 10-11
{12}
н/о н/о +11.8 +11.2 96 +8 +8 1009.4 1006.3
02 22.05 З 11-13
{13}
н/о н/о +11.4 +10.8 96 +7 +7 1009.6 1006.5
03 22.05 З 11-13
{15}
н/о н/о +11.1 +10.3 95 +7 +7 1009.8 1006.7
04 22.05 З 10-11
{14}
н/о н/о +10.8 +10.0 95 +6 +6 1010.5 1007.4
05 22.05 З 12-13
{13}
н/о н/о +10.6 +9.9 95 +6 +6 1011.0 1007.9
06 22.05 З 13-15
{15}
н/о н/о +10.6 +9.5 93 +6 +6 1011.3 1008.2 +10.5 +17.0
07 22.05 З 11-14
{15}
н/о н/о +10.8 +9.2 90 +6 +6 1012.2 1009.1
08 22.05 З 11-14
{15}
н/о н/о +10.8 +9.4 91 +6 +6 1012.8 1009.7
09 22.05 З 11-13
{15}
н/о н/о +10.9 +9.4 90 +6 +6 1013.6 1010.5
10 22.05 СЗ 12-13
{15}
н/о н/о +10.9 +9.1 89 +6 +6 1014.2 1011.0
11 22.05 З 11-13
{14}
н/о н/о +10.8 +8.7 87 +6 +6 1014.7 1011.5
12 22.05 З 11-13
{15}
н/о н/о +11.0 +8.9 87 +7 +7 1015.1 1011.9
13 22.05 З 11-14
{14}
н/о н/о +11.6 +8.0 79 +8 +8 1015.5 1012.4
14 22.05 З 11-13
{13}
н/о н/о +12.0 +8.0 76 +8 +8 1015.6 1012.5
15 22.05 СЗ 10-12
{14}
н/о н/о +12.9 +7.9 72 +10 +10 1016.1 1013.0
16 22.05 З 10-11
{11}
н/о н/о +13.4 +7.7 68 +10 +10 1016.0 1012.9
17 22.05 З 11-12
{12}
н/о н/о +13.4 +7.2 66 +10 +10 1016.2 1013.1
18 22.05 З 11-12
{14}
н/о н/о +12.7 +6.6 66 +9 +9 1016.4 1013.3 +10.5 +13.6
19 22.05 З 8-10
{12}
н/о н/о +12.2 +7.5 73 +9 +9 1017.2 1014.1
20 22.05 З 8-9
{11}
н/о н/о +11.5 +7.8 78 +8 +8 1017.6 1014.4
21 22.05 З 8-10
{12}
н/о н/о +11.1 +7.2 77 +8 +8 1017.7 1014.5
22 22.05 З 7-8
{10}
н/о н/о +10.9 +6.8 76 +8 +8 1017.9 1014.7
23 22.05 З 6-7
{9}
н/о н/о +10.3 +7.6 83 +7 +7 1018.2 1015.0
00 23.05 ЮЗ 6-7
{12}
н/о н/о +9.7 +7.3 85 +6 +6 1018.0 1014.8
01 23.05 ЮЗ 7-8
{8}
н/о н/о +9.2 +7.3 88 +5 +5 1017.9 1014.7
02 23.05 З 8-10
{10}
н/о н/о +9.6 +7.2 85 +5 +5 1017.7 1014.5
03 23.05 З 9-10
{11}
н/о н/о +9.8 +7.2 84 +5 +5 1017.6 1014.4
04 23.05 ЮЗ 9-9
{10}
н/о н/о +9.2 +7.4 88 +5 +5 1017.6 1014.4
05 23.05 ЮЗ 8-9
{10}
н/о н/о +9.3 +8.0 92 +5 +5 1017.8 1014.6
06 23.05 ЮЗ 7-8
{11}
н/о н/о +10.2 +8.3 88 +6 +6 1018.1 1014.9 +8.8 +12.8
07 23.05 ЮЗ 7-8
{9}
н/о н/о +11.6 +7.9 78 +8 +8 1018.2 1015.0
08 23.05 ЮЗ 7-9
{9}
н/о н/о +12.9 +7.0 67 +10 +10 1018.0 1014.9
09 23.05 ЮЗ 8-9
{10}
н/о н/о +14.1 +5.9 58 +12 +12 1017.9 1014.8
10 23.05 ЮЗ 9-10
{10}
н/о н/о +15.5 +5.8 52 +14 +14 1017.9 1014.8
11 23.05 ЮЗ 8-11
{12}
н/о н/о +16.3 +5.9 50 +15 +15 1017.5 1014.4
12 23.05 ЮЗ 9-10
{12}
н/о н/о +17.4 +6.5 49 +16 +16 1017.2 1014.1
13 23.05 ЮЗ 7-8
{11}
н/о н/о +17.7 +7.0 49 +17 +17 1016.9 1013.8
14 23.05 З 6-8
{11}
н/о н/о +17.5 +7.1 50 +17 +17 1016.5 1013.4
15 23.05 З 8-9
{11}
н/о н/о +17.9 +6.6 48 +17 +17 1016.2 1013.1
16 23.05 З 6-7
{9}
н/о н/о +18.0 +7.2 49 +17 +17 1015.9 1012.8
17 23.05 З 5-6
{8}
н/о н/о +18.0 +6.9 48 +18 +18 1015.5 1012.4
18 23.05 З 5-5
{11}
н/о н/о +17.8 +7.5 51 +17 +17 1015.3 1012.2 +10.2 +18.4
19 23.05 З 3-4
{6}
н/о н/о +17.2 +8.4 56 +17 +17 1015.1 1012.0
20 23.05 ЮЗ 2-3
{4}
н/о н/о +16.8 +8.3 57 +17 +17 1015.1 1012.0
21 23.05 ЮЗ 4-5
{6}
н/о н/о +15.9 +8.4 61 +15 +15 1015.0 1011.9
22 23.05 З 5-5
{5}
н/о н/о +15.3 +7.3 59 +14 +14 1014.8 1011.7
23 23.05 З 4-4
{6}
н/о н/о +14.0 +7.9 67 +13 +13 1014.6 1011.5
00 24.05 ЮЗ 5-5
{6}
н/о н/о +13.2 +7.2 67 +11 +11 1014.1 1011.0
01 24.05 ЮЗ 6-7
{7}
н/о н/о +12.4 +8.8 79 +10 +10 1013.5 1010.4
02 24.05 З 6-6
{8}
н/о н/о +11.5 +7.1 74 +9 +9 1013.4 1010.3
03 24.05 З 6-7
{8}
н/о н/о +11.2 +7.3 77 +8 +8 1013.3 1010.2
04 24.05 ЮЗ 7-8
{8}
н/о н/о +11.0 +6.8 75 +8 +8 1013.0 1009.9
05 24.05 ЮЗ 7-8
{8}
н/о н/о +11.3 +6.9 74 +8 +8 1013.0 1009.9
06 24.05 ЮЗ 9-10
{10}
н/о н/о +12.0 +5.9 66 +9 +9 1012.9 1009.8 +10.8 +18.0
07 24.05 ЮЗ 9-10
{10}
н/о н/о +13.4 +6.9 65 +11 +11 1012.4 1009.3
08 24.05 ЮЗ 9-11
{11}
н/о н/о +15.0 +7.1 59 +13 +13 1012.0 1008.9
09 24.05 ЮЗ 12-14
{15}
н/о н/о +16.4 +7.3 55 +14 +14 1011.5 1008.4
10 24.05 ЮЗ 12-15
{16}
н/о н/о +17.3 +7.6 53 +16 +16 1011.1 1008.0
11 24.05 З 14-18
{18}
н/о н/о +18.0 +7.1 49 +16 +16 1010.7 1007.6
12 24.05 З 10-12
{18}
н/о н/о +16.5 +9.3 62 +15 +15 1010.9 1007.8
13 24.05 З 13-14
{16}
н/о н/о +16.7 +8.2 57 +15 +15 1010.6 1007.5
14 24.05 З 14-16
{16}
н/о н/о +16.3 +4.6 46 +14 +14 1010.9 1007.8
15 24.05 З 11-14
{16}
н/о н/о +15.1 +7.9 62 +13 +13 1011.1 1008.0
16 24.05 З 11-13
{15}
н/о н/о +13.9 +8.7 71 +11 +11 1011.4 1008.3
17 24.05 З 13-14
{14}
н/о н/о +13.2 +8.1 71 +10 +10 1011.1 1008.0
18 24.05 З 12-14
{16}
н/о н/о +12.8 +7.2 69 +9 +9 1011.4 1008.3 +12.1 +18.1
19 24.05 З 11-12
{13}
н/о н/о +12.2 +8.1 76 +8 +8 1011.8 1008.7
20 24.05 З 10-12
{13}
н/о н/о +11.7 +7.7 76 +8 +8 1012.1 1009.0
21 24.05 З 8-9
{13}
н/о н/о +11.7 +7.6 76 +8 +8 1012.2 1009.1
22 24.05 З 8-10
{12}
н/о н/о +11.5 +6.5 71 +8 +8 1012.4 1009.3
23 24.05 З 8-9
{11}
н/о н/о +11.3 +6.7 73 +8 +8 1012.5 1009.4
00 25.05 З 7-9
{13}
н/о н/о +11.2 +7.1 76 +8 +8 1012.5 1009.4
01 25.05 СЗ 8-10
{10}
н/о н/о +11.0 +7.1 77 +7 +7 1012.5 1009.4
02 25.05 З 9-11
{11}
н/о н/о +11.1 +6.5 73 +7 +7 1012.4 1009.3
03 25.05 З 8-9
{11}
н/о н/о +10.9 +6.1 72 +7 +7 1012.8 1009.7
04 25.05 З 9-10
{12}
н/о н/о +10.9 +6.1 72 +7 +7 1012.9 1009.8
05 25.05 З 8-10
{11}
н/о н/о +10.9 +6.8 76 +7 +7 1013.1 1010.0
06 25.05 З 9-11
{12}
н/о н/о +10.9 +6.7 75 +7 +7 1013.4 1010.2 +10.8 +12.7

 

Местоположение метеостанции Киль маяк (Германия): широта 54.50 долгота 10.28 высота над уровнем моря 21 м.

В архиве по умолчанию представлена погода в Киль маяке за последнюю неделю. Архивные данные за месяц целиком и за предыдущие месяцы, начиная с января 2011 года, Вы можете получить, выбрав интересующий диапазон дат из раскрывающегося списка и нажав кнопку "Ввод!".


*Определитесь, кто Вы:
робот инопланетянин человек

Внимание! Время в таблицах - всемирное. Для получения местного времени необходимо прибавить поправку, которая равна 1 ч.

Смотрите также архив погоды в соседних городах и на ближайших метеорологических станциях:

Погода в Киле (Германия) (16 км)
Погода в Ольпенице (Германия) (25 км)
Погода в Дёрнике (Германия) (37 км)
Погода на Мысе Kegnaes (Дания) (43 км)
Погода в Шлезвиге (Германия) (47 км)
Погода в Шлезвиг аэропорту (Германия) (49 км)
Погода в Вестермаркельсдорфе (Германия) (51 км)
Погода в Хоне (Германия) (53 км)
Погода в Ланго (Дания) (58 км)
Погода в Тосинге (Дания) (61 км)

Пояснения к столбцам:

Ветер - указаны скорость ветра в м/с - средняя за 10 мин, порывы в срок и между сроками (в фигурных скобках) и направление, откуда дует ветер: С - северный, СВ - северо-восточный, В - восточный, ЮВ - юго-восточный, Ю - южный, ЮЗ - юго-западный, З - западный, СЗ - северо-западный.
Видимость - горизонтальная дальность видимости в метрах или километрах. При видимости от 1 до 10 км при отсутствии осадков обычно наблюдается дымка, при ухудшении видимости до 1 км и менее - туман. В сухую погоду видимость может ухудшаться дымом, пылью или мглою.
Явления - указаны атмосферные явления, наблюдавшиеся в срок или в последний час перед сроком; фигурными скобками обозначены явления, наблюдавшиеся между сроками (за 1-3 часа до срока); квадратными скобками обозначены град или гололедные отложения с указанием их диаметра в мм.
Облачность - указаны через наклонную черту общая и нижняя облачность в баллах и высота нижней границы облаков в метрах; квадратными скобками обозначены формы облаков: Ci - перистые, Cs - перисто-слоистые, Cc - перисто-кучевые, Ac - высококучевые, As - высокослоистые, Sc - слоисто-кучевые, Ns - слоисто-дождевые, Cu - кучевые, Cb - кучево-дождевые. Подробнее классификацию облаков см. в Атласе облаков (PDF).
T - Температура воздуха - температура, измеренная на высоте 2 м над землей.
Td - Температура точки росы - температура, при понижении до которой содержащийся в воздухе водяной пар достигнет насыщения.
f - Относительная влажность воздуха - влажноcть воздуха, измеренная на высоте 2 м над землей.
Te - Эффективная температура - температура, которую ощущает одетый по сезону человек в тени. Характеристика душности погоды. При расчете учитывается влияние влажности воздуха и скорости ветра на теплоощущения человека.
Tes - Эффективная температура на солнце - температура, которую ощущает человек, с поправкой на солнечный нагрев. Характеристика знойности погоды. Зависит от высоты солнца над горизонтом, облачности и скорости ветра. Ночью, в пасмурную погоду, а также при ветре 12 м/с и более поправка равна нулю.
P - Атмосферное давление - приведенное к уровню моря атмосферное давление.
Po - Атмосферное давление - измеренное на уровне метеостанции атмосферное давление.
Tmin - Минимальная температура - минимум температуры воздуха на высоте 2 м над землей.
Tmax - Максимальная температура - максимум температуры воздуха на высоте 2 м над землей.
R - Количество осадков - Количество выпавших осадков за период времени, мм. При наведении курсора мыши на число - период времени, за который выпало указанное количество осадков.
R24 - Количество осадков - Количество выпавших осадков за 24 часа, мм.
S - Снежный покров - Высота снежного покрова, см. При наведении курсора мыши на число - состояние снежного покрова и степень покрытия местности в баллах.